This is the latest recevied weather packets stored in our database for station/object K5FEP. If no packets are shown the sender has not sent any weather packets the latest 10 day(s).
| Time | Temp. | Humidity | Pressure | Rain* | Wind** | Luminosity | Snow |
|---|---|---|---|---|---|---|---|
| 1788574693 | 23.89° C | 87% | 1014.2 hPa | 0 mm | - | 0 W/m² | - |
| 1788574388 | 23.89° C | 87% | 1014.3 hPa | 0 mm | - | 0 W/m² | - |
| 1788574088 | 23.89° C | 86% | 1014.4 hPa | 0 mm | - | 0 W/m² | - |
| 1788573783 | 23.89° C | 87% | 1014.2 hPa | 0 mm | - | 0 W/m² | - |
| 1788573482 | 23.89° C | 87% | 1014.7 hPa | 0 mm | - | 0 W/m² | - |
| 1788573176 | 23.89° C | 87% | 1014.3 hPa | 0 mm | - | 0 W/m² | - |
| 1788572875 | 23.89° C | 86% | 1014.7 hPa | 0 mm | - | 0 W/m² | - |
| 1788572571 | 24.44° C | 86% | 1014.7 hPa | 0 mm | - | 0 W/m² | - |
| 1788572266 | 23.89° C | 86% | 1014.9 hPa | 0 mm | - | 0 W/m² | - |
| 1788571963 | 23.89° C | 87% | 1015 hPa | 0 mm | - | 0 W/m² | - |
| 1788571658 | 23.89° C | 88% | 1014.5 hPa | 0 mm | - | 0 W/m² | - |
| 1788571353 | 23.89° C | 91% | 1014.4 hPa | 0 mm | - | 0 W/m² | - |
| 1788571050 | 23.89° C | 90% | 1013.9 hPa | 0 mm | - | 0 W/m² | - |
| 1788570746 | 23.89° C | 90% | 1013.7 hPa | 0 mm | - | 0 W/m² | - |
| 1788570446 | 23.89° C | 89% | 1013 hPa | 0 mm | - | 0 W/m² | - |
| 1788570141 | 23.89° C | 89% | 1012.9 hPa | 0 mm | - | 0 W/m² | - |
| 1788569837 | 24.44° C | 87% | 1013 hPa | 0 mm | - | 0 W/m² | - |
| 1788569533 | 24.44° C | 86% | 1013 hPa | 0 mm | - | 0 W/m² | - |
| 1788569227 | 24.44° C | 85% | 1012.5 hPa | 0 mm | - | 0 W/m² | - |
| 1788568922 | 25° C | 85% | 1012.7 hPa | 0 mm | - | 0 W/m² | - |
| 1788568617 | 25° C | 85% | 1012.7 hPa | 0 mm | - | 0 W/m² | - |
| 1788568313 | 25° C | 85% | 1012.7 hPa | 0 mm | - | 0 W/m² | - |
| 1788568009 | 25° C | 81% | 1012.8 hPa | 0 mm | - | 0 W/m² | - |
| 1788567708 | 25.56° C | 83% | 1012.5 hPa | 0 mm | - | 0 W/m² | - |
| 1788567404 | 25.56° C | 80% | 1013.1 hPa | 0 mm | - | 0 W/m² | - |
* Rain latest hour (hover to see other rain measurements)
** Current wind speed in m/s (hover to see current wind gust speed)